Location: Newark
(41.6500°N, 71.4833°W)
Time: 02:37:25
(UTC+00:00)

Transit 2A Rocket - Pass Details

Date: 03 February 2020
Orbit: 591 x 912 km, 66.7° (Epoch: 25 February)

Event Time Altitude Azimuth Distance (km) Brightness Sun altitude
Rises 14:49:44 0° 344° (NNW) 3,015 7.5 24.5°
Reaches altitude 10° 14:53:04 10° 9° (N) 2,164 7.0 24.9°
Maximum altitude 14:55:44 14° 42° (NE) 1,932 7.1 25.1°
Drops below altitude 10° 14:58:30 10° 75° (ENE) 2,274 7.8 25.4°
Sets 15:02:09 0° 99° (E) 3,274 8.8 25.8°
